Back to catalog

CZ-2C DEB

AliveSSO
NORAD 40264·DEBRIS·🇨🇳 China

Launched Sep 28, 2014 from Jiuquan Satellite Launch Center

Loading…

Next Passes (next 24 hours)

TLE

FreshSource: Space-Track

Epoch: Sep 14, 2026, 05:11 UTC

1 40264U 14059D   26257.21639512  .00010762  00000-0  87880-3 0  9996
2 40264  97.8121 158.5041 0045553 185.2243 174.8510 14.98767824636486

Track CZ-2C DEB in real time with AllMySat

Download on the App Store